Location: Molino di Ancona
(43.6167°N, 13.3667°E)
Time: 10:28:51
(UTC+00:00)

Cosmos 1354 Rocket - Pass Details

Date: 15 December 2019
Orbit: 763 x 784 km, 74.0° (Epoch: 24 January)

Event Time Altitude Azimuth Distance (km) Brightness Sun altitude
Rises 05:39:43 0° 341° (NNW) 3,266 6.9 -9.3°
Reaches altitude 10° 05:42:07 10° 344° (NNW) 2,337 6.1 -8.9°
Maximum altitude 05:47:25 68° 67° (ENE) 841 4.4 -8.0°
Drops below altitude 10° 05:52:42 10° 151° (SSE) 2,332 7.4 -7.2°
Sets 05:55:06 0° 154° (SSE) 3,257 8.2 -6.8°
